This is the latest recevied weather packets stored in our database for station/object K6MBY. If no packets are shown the sender has not sent any weather packets the latest 10 day(s).
| Time | Temp. | Humidity | Pressure | Rain* | Wind** | Luminosity | Snow |
|---|---|---|---|---|---|---|---|
| 1777760656 | 20.56° C | 51% | 1019.4 hPa | 0 mm | - | 672 W/m² | - |
| 1777760356 | 20.56° C | 51% | 1019.6 hPa | 0 mm | - | 683 W/m² | - |
| 1777760054 | 21.11° C | 50% | 1019.6 hPa | 0 mm | - | 692 W/m² | - |
| 1777759751 | 20.56° C | 51% | 1019.7 hPa | 0 mm | - | 703 W/m² | - |
| 1777759446 | 20.56° C | 52% | 1019.7 hPa | 0 mm | - | 712 W/m² | - |
| 1777759143 | 20° C | 57% | 1019.8 hPa | 0 mm | - | 723 W/m² | - |
| 1777758841 | 20° C | 55% | 1019.8 hPa | 0 mm | - | 732 W/m² | - |
| 1777758537 | 19.44° C | 57% | 1020 hPa | 0 mm | - | 740 W/m² | - |
| 1777758234 | 19.44° C | 56% | 1019.9 hPa | 0 mm | - | 748 W/m² | - |
| 1777757931 | 19.44° C | 58% | 1019.7 hPa | 0 mm | - | 756 W/m² | - |
| 1777757628 | 19.44° C | 56% | 1019.8 hPa | 0 mm | - | 764 W/m² | - |
| 1777757327 | 19.44° C | 57% | 1019.9 hPa | 0 mm | - | 770 W/m² | - |
| 1777757025 | 18.89° C | 60% | 1020.1 hPa | 0 mm | - | 777 W/m² | - |
| 1777756722 | 18.89° C | 60% | 1020.1 hPa | 0 mm | - | 784 W/m² | - |
| 1777756418 | 18.89° C | 59% | 1020.2 hPa | 0 mm | - | 791 W/m² | - |
| 1777756115 | 18.89° C | 59% | 1020.1 hPa | 0 mm | - | 797 W/m² | - |
| 1777755812 | 18.89° C | 59% | 1020.3 hPa | 0 mm | - | 801 W/m² | - |
| 1777755510 | 18.33° C | 63% | 1020.3 hPa | 0 mm | - | 807 W/m² | - |
| 1777755205 | 18.89° C | 60% | 1020.2 hPa | 0 mm | - | 811 W/m² | - |
| 1777754903 | 18.33° C | 61% | 1020.3 hPa | 0 mm | - | 815 W/m² | - |
| 1777754600 | 18.89° C | 59% | 1020.3 hPa | 0 mm | - | 819 W/m² | - |
| 1777754297 | 17.78° C | 63% | 1020.3 hPa | 0 mm | - | 823 W/m² | - |
| 1777753995 | 18.89° C | 60% | 1020.6 hPa | 0 mm | - | 826 W/m² | - |
| 1777753694 | 18.33° C | 63% | 1020.5 hPa | 0 mm | - | 829 W/m² | - |
| 1777753392 | 18.33° C | 63% | 1020.8 hPa | 0 mm | - | 832 W/m² | - |
* Rain latest hour (hover to see other rain measurements)
** Current wind speed in m/s (hover to see current wind gust speed)